Laconia, NH (03246)

23:24 EDT le 27 septembre 2016 (GMT -0400)
KNHWEIRS3 | | Change Station

Alt. 837 ft 43.55 °N, 71.43 °W | Updated 43 seconds ago

Clear
Ciel dégagé
52.6 ° F
Paraît 52.6 ° F
N
0.0
Vent Variable Vent de Ouest
Gusts 0.0 mph

Aujourd'hui
Haut(e) -- | Bas -- ° F
--% Risque de précip.
Hier
Haut(e) -- | Bas -- ° F
Precip. -- pouce
Pression 30.09 pouce
Visibilité 10.0 Miles terrestres
Nuages Ciel dégagé
Point de rosée 53 ° F
Humidité 100%
Précipitations 0.33 pouce
Profondeur de la couche neigeuse Non disponible.
6:39 AM 6:33 PM
Lune descendante, 8% visible
METAR KLCI 280256Z AUTO 00000KT 10SM CLR 11/09 A3003 RMK AO2 SLP188 T01060094 51025
Pression 30.09 pouce
Visibilité 10.0 Miles terrestres
Nuages Ciel dégagé
Point de rosée 53 ° F
Humidité 100%
Précipitations 0.33 pouce
Profondeur de la couche neigeuse Non disponible.
6:39 AM 6:33 PM
Lune descendante, 8% visible
METAR KLCI 280256Z AUTO 00000KT 10SM CLR 11/09 A3003 RMK AO2 SLP188 T01060094 51025

10-Day Weather Forecast

Almanac

Astronomie

Sep. 27, 2016 Lever Coucher
Temps réel
Crépuscule civil
Crépuscule nautique
Crépuscule astronomique
Lune
Durée de lumière visible
Longueur du jour
Tomorrow will be .
, % of the Moon is Illuminated

Extrêmes aujourd'hui

State Highs State Lows

Community

WunderPhotos

Upload Photos

1,942,201 Photos téléchargées !

WunderBlog® & News

Nearby

Qualité de l'air

  Qualité de l'air Indice de la qualité de l'air Polluant
Not available.

Épaisseur de neige

Station Depth Altitude

Activité sismique

Ville Distance Mag. Time & Date
Minimum magnitude displayed is 2.5.

Températures des eaux côtières

Lieu Température

Stations

Stations météo à proximité

Emplacement de la station Température Refroidissement éolien Point de rosée Humidité Vent Precip. Alt. Mise à jour Type
                   

Watches & Warnings

There are currently no watches in effect.